Temperature
20 20 20 20 20 19 19 19 19 19 19 19 19 19 19 19 19 19 19 19 19 19 19 19 19 19 18 18 19 19 19 19 19 19 19 19 19 18 18 18 18 18 18
20 20 20 20 20 19 19 19 19 19 19 19 19 19 19 19 19 19 19 19 19 19 19 19 19 19 19 19 19 19 19 19 19 19 19 18 18 18 18 18 18 18 18
20 20 20 20 19 19 19 19 19 19 19 19 19 19 19 19 19 19 19 19 19 19 19 19 19 19 18 18 19 19 19 19 19 18 18 18 18 18 18 18 18 18 18
20 20 20 20 19 19 19 19 19 19 19 19 19 19 19 19 19 19 19 19 19 19 19 19 19 18 18 18 18 19 19 18 18 18 18 18 18 18 18 18 18 18 18
20 20 20 20 19 19 19 19 19 19 19 19 19 19 19 19 19 19 19 19 19 18 18 18 18 18 18 18 18 19 18 18 18 18 18 18 18 18 18 18 18 18 17
20 20 20 20 19 19 19 19 19 19 19 19 19 19 19 19 19 19 19 19 19 18 18 18 18 18 18 18 18 18 18 18 18 18 18 18 18 18 18 18 18 18 17
20 20 20 20 20 19 19 19 19 19 19 19 19 19 19 19 19 19 19 19 18 18 18 18 18 18 18 18 18 18 18 18 18 18 18 18 18 18 18 18 18 17 17
20 20 20 20 20 19 19 19 19 19 19 19 19 19 19 19 19 19 19 19 18 18 18 18 18 18 18 18 18 18 18 18 18 18 18 18 18 18 18 18 18 17 17
20 20 20 20 20 19 20 20 20 19 19 19 19 19 19 19 19 19 19 19 19 18 18 18 18 18 18 18 18 18 18 18 18 18 18 18 18 18 18 18 18 17 17
20 20 20 20 19 19 19 19 19 19 19 19 19 19 19 19 19 19 19 19 19 19 18 18 18 18 18 18 19 18 18 18 18 18 18 18 18 18 18 18 18 17 17
21 21 20 20 20 20 19 19 19 19 19 19 19 19 19 19 19 19 19 19 19 19 19 19 19 18 18 18 18 18 18 18 18 18 18 18 18 18 18 18 18 17 17
21 21 21 20 20 20 19 19 19 19 19 19 19 19 19 19 19 18 19 19 19 19 19 18 18 18 18 18 18 18 18 18 18 18 18 18 18 18 18 18 18 18 18
21 21 21 20 20 20 20 20 19 19 19 19 19 19 19 19 19 19 19 19 19 19 19 18 18 18 18 18 18 18 18 18 18 18 18 18 18 18 18 18 18 17 17
21 21 20 20 20 20 20 20 20 19 19 19 19 19 19 19 19 19 19 19 19 19 19 19 18 18 18 18 18 18 18 18 18 18 18 18 18 18 18 18 18 17 17
21 21 20 20 20 20 20 20 20 20 19 19 19 19 19 19 19 19 19 19 19 19 19 18 18 18 18 18 18 18 18 18 18 18 18 18 18 18 18 18 17 17 17
21 21 20 20 20 19 19 20 20 20 20 19 19 19 19 19 19 19 19 19 19 19 19 19 19 18 18 18 18 18 18 18 18 18 18 18 18 18 18 18 17 17 17
21 20 20 20 20 20 19 20 20 20 20 19 19 19 19 19 19 19 19 19 19 19 19 19 19 18 18 18 18 18 18 18 18 18 18 18 18 18 18 18 17 17 17
21 20 20 20 20 20 20 20 20 20 20 19 19 19 19 19 19 19 19 19 19 19 19 19 19 18 18 18 18 18 18 18 18 18 18 18 18 18 18 18 17 17 17
21 21 20 20 20 20 20 20 20 20 20 19 19 19 19 19 19 19 19 19 19 19 19 19 18 19 19 18 18 18 18 18 18 18 18 18 18 17 17 17 17 17 17
21 20 20 20 20 20 20 20 20 19 19 19 19 19 19 19 19 19 19 19 19 19 19 19 19 19 19 18 18 18 18 18 18 18 18 18 18 18 17 17 17 17 17
21 20 20 20 20 20 20 20 19 19 19 19 19 19 19 19 19 19 19 19 19 19 19 19 19 19 19 19 18 18 18 18 18 18 18 18 18 18 17 17 17 17 17
21 20 20 20 20 20 20 20 20 19 19 19 19 19 19 19 19 19 19 19 19 19 19 19 19 19 19 19 19 18 18 18 19 18 18 18 18 18 17 17 17 17 17
21 21 21 20 20 20 20 19 20 20 19 19 19 19 19 19 19 19 19 19 19 19 19 19 19 19 19 19 19 19 19 19 18 18 18 18 18 18 17 17 17 17 17
22 21 21 20 20 20 20 20 20 20 19 19 19 19 19 19 19 19 19 19 19 19 19 19 19 19 19 19 19 19 19 19 19 18 18 18 18 18 18 17 17 17 17
22 22 21 21 20 20 20 20 20 20 20 20 19 19 19 19 19 19 19 19 19 19 19 19 19 18 19 19 19 19 19 19 19 19 18 18 18 18 18 18 17 17 17
23 22 21 21 21 20 20 20 20 20 20 20 20 19 19 19 19 19 19 19 19 19 19 18 18 18 18 19 19 18 19 19 19 19 18 18 18 18 18 18 17 17 17
Wind_Speed
8 10 11 11 11 12 12 12 13 13 13 13 13 14 15 15 16 15 16 15 16 16 16 15 15 15 13 13 13 13 13 12 13 13 12 12 11 10 10 10 10 10 11
9 11 12 12 12 12 12 12 13 13 13 12 13 13 14 15 15 15 15 15 15 15 16 16 15 15 13 12 13 12 12 12 12 12 12 11 10 9 9 9 9 10 10
11 12 12 12 12 12 12 12 12 12 13 12 12 13 14 14 14 15 15 16 16 16 16 15 15 14 13 12 12 11 11 11 11 11 11 10 10 10 10 10 11 10 8
12 12 12 12 12 12 11 11 11 12 12 12 12 13 13 14 14 15 15 15 16 16 15 16 14 13 12 12 11 10 9 9 8 8 7 8 9 10 10 10 10 8 7
12 13 13 11 11 11 11 11 11 11 12 12 12 13 13 13 13 14 14 14 15 15 14 14 14 13 12 11 10 8 8 7 6 5 4 8 9 10 10 9 8 8 7
11 12 12 11 11 12 11 11 11 11 11 12 12 12 12 13 13 13 13 13 13 14 14 13 13 12 11 9 8 7 6 5 3 4 6 8 9 10 9 8 7 7 7
11 12 12 13 13 12 12 11 11 11 11 11 12 12 12 12 12 12 12 11 11 12 13 13 13 11 10 8 7 6 4 3 4 3 7 9 10 11 9 8 6 5 6
11 12 12 14 14 12 11 11 11 11 11 11 11 12 11 11 11 11 10 10 10 10 11 12 12 10 9 7 6 5 4 3 2 4 8 9 11 11 9 8 7 6 6
11 11 10 12 12 12 11 11 11 11 11 11 11 11 11 11 11 11 9 9 9 10 11 11 11 10 8 7 5 5 5 4 1 3 6 8 11 11 9 7 6 6 6
9 9 9 11 11 11 11 11 11 11 11 10 10 11 11 11 11 11 10 10 10 11 11 11 11 10 9 8 7 6 5 3 3 3 6 9 11 10 8 7 6 5 5
8 7 8 8 9 9 10 12 11 11 11 10 10 10 10 9 10 10 10 11 11 11 11 11 11 11 10 9 9 8 6 4 3 4 7 11 10 9 8 7 6 4 5
8 7 6 7 7 7 8 9 8 8 9 8 7 7 7 7 7 9 11 12 11 11 11 11 11 10 9 7 9 9 6 5 2 6 8 11 10 8 7 6 5 4 4
9 7 7 7 7 6 5 6 5 6 7 7 6 6 7 6 7 7 8 9 9 10 8 9 9 8 6 4 4 5 4 3 3 5 8 10 9 7 6 6 5 5 5
8 8 7 8 7 6 5 4 4 4 4 5 7 6 5 3 3 4 3 5 5 5 5 5 4 4 4 3 3 2 2 2 3 6 8 10 9 7 6 6 6 5 5
9 8 8 8 7 5 3 1 4 4 4 5 4 4 4 4 3 3 2 3 3 3 4 3 3 3 3 3 3 3 2 2 3 6 7 10 9 8 6 6 6 5 5
8 8 8 8 7 4 2 2 2 4 4 5 5 4 4 5 4 3 2 1 2 2 3 3 3 3 2 2 2 1 1 2 3 6 8 9 9 8 7 7 6 6 5
9 8 6 8 7 4 2 1 3 3 4 4 5 5 4 5 4 2 2 1 2 2 2 2 2 2 2 2 2 2 1 1 2 4 7 8 8 8 8 8 7 6 6
9 7 5 6 7 5 2 1 2 2 3 3 4 4 3 4 3 2 1 1 2 3 2 2 2 2 2 2 2 2 2 2 2 4 5 7 8 7 8 9 8 8 7
8 7 5 4 6 4 3 2 2 3 2 2 3 3 3 3 3 1 1 1 2 1 1 1 2 1 1 1 3 3 3 3 2 3 3 4 6 7 7 9 9 8 7
9 8 6 5 5 4 3 2 1 2 2 2 3 3 3 2 2 1 2 2 1 1 1 1 1 0 1 1 2 1 2 3 3 3 3 3 5 6 7 8 8 8 8
10 8 7 6 5 3 2 2 2 2 2 2 3 4 3 2 1 1 1 1 1 2 1 1 0 1 2 1 1 1 2 3 3 3 3 2 3 4 6 7 7 7 7
11 9 8 7 6 5 3 2 2 2 2 2 2 3 3 3 2 2 1 0 1 1 1 1 1 1 2 2 2 1 1 1 2 3 3 4 3 3 4 6 7 7 7
11 11 9 7 6 6 5 3 2 2 1 1 3 2 2 2 2 1 2 1 1 1 1 1 1 2 2 2 2 1 1 2 1 1 2 2 2 1 2 3 5 7 7
12 11 9 8 6 6 5 4 4 4 3 3 3 3 3 2 2 2 2 2 1 0 1 2 1 2 2 2 2 2 2 1 1 1 1 2 3 3 3 2 3 5 7
12 11 10 8 7 6 5 5 3 3 3 2 3 3 3 3 2 1 2 2 1 1 1 1 0 1 1 1 1 1 2 2 3 2 1 2 2 3 3 3 2 3 6
11 10 11 9 7 6 6 5 4 3 2 2 2 3 4 3 2 2 2 1 1 1 1 1 1 2 1 1 2 2 1 1 2 2 3 3 2 2 3 3 3 3 5
Wind_Direction
77 84 92 87 85 85 86 86 85 86 87 92 96 99 100 102 107 112 117 122 124 125 125 125 124 123 118 116 116 115 115 115 115 115 114 114 113 111 110 112 113 103 108
91 91 94 89 89 88 88 88 88 90 91 95 98 102 104 106 108 111 118 121 122 123 122 120 121 120 118 118 116 118 121 121 123 125 123 118 116 112 110 109 104 109 113
94 92 91 87 89 90 89 90 89 90 93 95 99 103 106 109 110 110 112 116 119 121 121 120 120 121 121 119 119 123 127 127 132 137 135 128 123 117 114 111 112 119 120
93 91 88 90 91 91 92 92 91 92 94 97 99 103 108 111 113 115 116 118 121 123 124 125 123 122 124 124 124 130 138 145 148 151 149 136 127 123 122 121 125 129 131
89 92 93 94 97 97 95 94 94 96 97 100 103 104 109 112 112 114 116 119 123 125 125 125 123 124 127 130 134 141 151 161 165 172 117 105 109 127 128 128 135 141 142
94 94 95 95 103 103 100 99 98 99 102 105 106 106 109 111 113 115 117 120 125 127 129 129 129 130 131 137 145 152 164 178 192 170 133 123 122 128 128 129 136 148 151
98 96 99 100 104 104 102 104 105 105 108 110 112 113 115 117 118 118 120 123 130 134 136 137 137 137 137 145 155 164 179 188 228 148 119 119 131 136 134 135 136 143 150
103 102 106 105 106 105 104 107 109 113 116 117 118 118 118 120 122 121 123 128 134 138 141 141 140 143 147 154 166 178 193 242 205 144 122 125 136 137 140 143 144 146 155
106 113 116 117 115 111 108 112 116 121 124 125 126 128 128 128 126 124 129 136 141 144 145 144 146 149 155 164 178 194 220 238 275 146 126 128 138 142 143 144 144 153 165
99 110 119 123 128 127 123 125 128 130 132 135 137 138 137 134 136 138 137 139 143 146 149 152 155 161 166 176 190 205 226 240 219 161 127 133 142 144 144 145 151 166 177
97 98 106 120 126 128 126 130 138 139 143 145 145 151 153 151 146 145 142 148 152 156 160 163 166 172 178 188 199 209 224 223 186 126 122 139 147 150 152 155 162 175 185
108 106 106 107 105 113 118 130 142 135 139 144 140 148 154 152 144 144 150 159 163 168 172 177 179 181 188 193 199 208 217 206 155 124 131 145 150 156 163 166 174 187 190
112 105 100 99 95 99 106 120 123 125 132 132 133 141 144 146 146 149 157 163 170 173 177 173 184 194 189 188 190 190 194 170 146 124 136 149 155 165 173 178 186 190 186
112 109 101 89 80 68 78 99 124 118 125 127 141 145 132 130 138 142 152 155 164 165 167 167 182 174 157 176 181 172 170 139 138 133 149 156 161 172 183 187 187 187 185
119 109 102 94 85 73 58 60 100 101 112 114 115 106 118 109 98 116 125 154 150 155 159 157 170 152 164 177 190 185 176 149 153 141 147 162 169 177 184 187 191 191 187
120 115 115 115 109 102 90 60 86 102 109 106 110 107 97 106 102 112 120 115 135 135 129 161 165 163 172 182 201 168 172 169 149 144 155 167 174 179 185 187 190 191 190
126 123 125 129 122 123 111 107 103 115 110 107 114 113 101 105 113 121 120 136 116 122 154 168 150 162 173 173 172 166 177 189 174 167 172 171 175 183 187 188 193 195 192
133 128 141 139 130 138 133 74 92 98 103 108 116 116 112 114 129 113 120 111 143 162 167 153 167 175 174 181 175 190 164 186 192 188 185 176 177 177 182 191 194 194 193
136 135 141 125 131 141 139 128 101 97 87 109 117 121 136 137 133 138 123 108 190 139 136 162 120 164 195 190 192 186 180 185 201 207 189 181 177 167 165 178 188 187 186
144 142 147 147 144 147 142 143 142 132 137 141 128 127 124 133 137 153 127 122 137 92 83 74 77 142 216 229 248 181 194 187 189 198 215 190 181 176 171 167 177 190 192
151 153 156 159 150 160 166 174 184 165 174 158 145 141 143 152 128 96 59 128 106 97 97 101 173 236 229 192 183 222 242 211 201 200 203 199 178 168 158 161 165 165 163
158 159 160 168 168 178 179 186 195 173 175 150 128 134 147 153 174 152 119 203 122 148 163 188 204 237 247 195 188 183 237 220 248 220 185 194 191 165 168 172 173 165 159
165 169 175 170 171 179 190 193 190 173 174 146 142 137 154 168 160 134 135 159 185 167 154 224 213 238 248 235 212 207 214 212 195 198 199 173 156 182 202 169 167 159 165
172 171 165 165 173 178 194 204 203 183 181 179 160 155 169 181 172 166 158 168 218 150 154 239 179 256 238 254 223 225 228 232 209 189 227 183 183 194 212 198 152 156 162
174 171 164 162 172 180 194 199 209 203 191 175 164 164 173 179 185 173 173 184 189 177 198 255 247 269 259 270 274 248 237 241 239 208 215 215 212 197 188 178 174 163 165
173 171 164 162 171 180 193 196 199 203 204 192 193 185 196 187 185 185 186 181 201 185 211 224 248 245 272 292 292 292 276 264 255 221 221 222 214 219 183 180 181 181 172
Height
1502 1500 1499 1498 1498 1498 1499 1500 1500 1501 1501 1502 1503 1504 1505 1507 1508 1511 1513 1515 1517 1519 1522 1524 1526 1529 1531 1533 1535 1537 1539 1540 1542 1543 1545 1546 1547 1549 1550 1551 1552 1552 1553
1502 1501 1500 1500 1499 1500 1501 1502 1503 1503 1504 1505 1506 1507 1508 1510 1512 1514 1515 1517 1519 1521 1524 1526 1528 1530 1532 1534 1536 1538 1540 1541 1543 1544 1546 1547 1548 1550 1550 1551 1553 1553 1554
1503 1502 1501 1501 1501 1501 1502 1504 1505 1505 1506 1507 1508 1510 1511 1513 1514 1516 1517 1519 1521 1523 1525 1528 1530 1532 1534 1536 1538 1540 1542 1543 1545 1546 1547 1548 1550 1551 1551 1552 1553 1554 1555
1504 1503 1502 1502 1502 1503 1504 1505 1506 1507 1508 1509 1511 1512 1513 1515 1517 1518 1520 1522 1524 1525 1528 1530 1532 1534 1536 1537 1539 1541 1543 1545 1546 1547 1548 1550 1551 1551 1552 1553 1554 1555 1555
1505 1505 1503 1502 1503 1504 1506 1507 1508 1509 1510 1511 1512 1514 1515 1517 1519 1521 1523 1524 1526 1528 1530 1532 1534 1536 1537 1539 1541 1543 1545 1546 1547 1548 1550 1551 1551 1552 1553 1553 1554 1555 1555
1507 1506 1504 1502 1502 1505 1507 1508 1509 1510 1512 1513 1514 1516 1517 1519 1521 1523 1525 1526 1528 1530 1532 1534 1535 1537 1539 1541 1543 1544 1546 1548 1548 1550 1551 1551 1552 1553 1553 1554 1554 1555 1555
1509 1508 1506 1503 1504 1506 1508 1509 1510 1511 1513 1515 1516 1518 1519 1521 1523 1525 1526 1528 1530 1531 1533 1535 1537 1539 1540 1542 1544 1545 1547 1548 1549 1551 1552 1552 1553 1553 1554 1554 1554 1555 1556
1511 1510 1509 1507 1508 1509 1509 1510 1511 1513 1515 1517 1518 1520 1521 1523 1525 1527 1528 1530 1531 1533 1535 1536 1538 1540 1541 1543 1545 1546 1548 1549 1551 1552 1553 1553 1553 1554 1554 1555 1555 1555 1556
1513 1512 1511 1511 1511 1511 1512 1512 1513 1515 1516 1519 1520 1522 1524 1525 1527 1528 1530 1531 1533 1534 1536 1538 1540 1541 1543 1544 1546 1547 1549 1550 1551 1552 1553 1553 1554 1554 1554 1555 1555 1555 1556
1515 1515 1515 1514 1514 1514 1514 1515 1516 1517 1519 1521 1523 1524 1526 1527 1529 1530 1532 1533 1534 1536 1537 1539 1541 1542 1543 1545 1547 1548 1549 1550 1551 1552 1553 1553 1554 1554 1554 1554 1555 1555 1555
1518 1518 1518 1518 1518 1518 1518 1518 1519 1520 1521 1523 1525 1526 1528 1529 1531 1532 1534 1535 1536 1538 1539 1541 1542 1543 1545 1546 1548 1549 1550 1550 1551 1552 1553 1553 1553 1554 1554 1554 1554 1554 1553
1520 1520 1521 1521 1521 1521 1521 1521 1522 1524 1524 1525 1527 1528 1530 1531 1533 1534 1535 1536 1538 1539 1540 1542 1543 1544 1545 1547 1548 1549 1550 1550 1551 1552 1553 1553 1553 1553 1554 1554 1554 1553 1553
1521 1522 1523 1523 1523 1523 1524 1525 1525 1526 1527 1528 1529 1530 1531 1532 1533 1535 1536 1537 1538 1540 1541 1543 1544 1545 1546 1547 1549 1550 1551 1551 1552 1552 1552 1553 1553 1553 1553 1553 1553 1553 1553
1523 1524 1525 1525 1525 1525 1526 1527 1528 1529 1529 1531 1531 1532 1533 1533 1534 1535 1536 1537 1539 1540 1541 1543 1544 1545 1547 1548 1549 1550 1551 1551 1552 1552 1552 1552 1553 1553 1553 1553 1553 1552 1553
1524 1525 1526 1526 1527 1527 1528 1529 1530 1531 1532 1533 1533 1534 1534 1534 1534 1535 1536 1538 1539 1541 1542 1543 1544 1545 1547 1547 1549 1550 1551 1551 1552 1552 1552 1552 1552 1552 1552 1552 1552 1552 1552
1525 1526 1527 1528 1528 1529 1530 1531 1532 1533 1534 1534 1535 1535 1536 1536 1536 1536 1537 1539 1540 1541 1542 1543 1544 1545 1546 1548 1549 1550 1550 1551 1552 1552 1552 1552 1552 1552 1551 1551 1551 1551 1552
1526 1527 1528 1529 1529 1530 1531 1532 1534 1535 1535 1535 1536 1537 1537 1537 1538 1538 1539 1540 1541 1542 1542 1543 1544 1545 1546 1547 1548 1549 1550 1550 1551 1551 1552 1551 1551 1551 1551 1551 1551 1551 1551
1526 1527 1528 1530 1530 1531 1532 1533 1535 1536 1536 1537 1537 1537 1538 1539 1539 1540 1541 1541 1542 1542 1543 1543 1544 1545 1546 1547 1547 1548 1549 1550 1550 1551 1551 1551 1550 1550 1550 1550 1550 1550 1550
1526 1527 1529 1530 1531 1532 1533 1534 1535 1536 1537 1538 1538 1538 1539 1539 1540 1540 1541 1541 1542 1543 1543 1544 1544 1545 1545 1546 1547 1548 1548 1549 1550 1550 1550 1551 1550 1550 1550 1550 1550 1550 1550
1526 1527 1529 1530 1531 1533 1534 1535 1536 1537 1537 1538 1538 1538 1539 1540 1540 1541 1541 1542 1542 1543 1543 1543 1544 1545 1545 1546 1547 1548 1548 1548 1549 1549 1549 1550 1550 1549 1549 1549 1548 1548 1549
1525 1527 1528 1530 1531 1532 1534 1535 1536 1537 1538 1538 1539 1539 1539 1540 1540 1541 1541 1542 1542 1542 1543 1543 1543 1544 1545 1545 1546 1546 1547 1547 1547 1548 1548 1548 1548 1548 1548 1548 1547 1547 1547
1524 1526 1528 1529 1530 1532 1533 1534 1536 1537 1537 1538 1538 1538 1539 1539 1540 1541 1541 1541 1541 1542 1542 1543 1543 1543 1544 1545 1545 1545 1546 1547 1546 1546 1546 1546 1547 1547 1547 1547 1547 1546 1545
1523 1524 1527 1528 1530 1531 1532 1534 1536 1536 1537 1538 1538 1538 1539 1539 1539 1540 1540 1540 1541 1541 1541 1542 1542 1542 1543 1543 1544 1544 1544 1544 1545 1545 1545 1545 1545 1546 1545 1546 1545 1544 1544
1521 1523 1525 1527 1529 1530 1532 1533 1535 1535 1536 1537 1537 1538 1538 1539 1539 1539 1539 1540 1540 1540 1540 1540 1540 1541 1541 1542 1542 1542 1543 1543 1543 1543 1544 1544 1544 1543 1544 1544 1543 1543 1542
1520 1522 1523 1525 1527 1529 1530 1532 1533 1535 1536 1537 1537 1537 1538 1538 1538 1538 1538 1538 1538 1538 1539 1539 1539 1539 1539 1539 1540 1540 1541 1541 1542 1542 1542 1542 1542 1542 1541 1542 1541 1541 1541
1518 1521 1522 1524 1525 1527 1529 1531 1532 1533 1534 1535 1536 1536 1536 1537 1537 1537 1537 1537 1537 1537 1537 1537 1537 1538 1538 1538 1538 1538 1539 1539 1540 1540 1540 1540 1540 1540 1539 1539 1539 1539 1539